Cancun International Airp, Mexico

9:33 AM EST on August 25, 2016 (GMT -0500)
Cancun International

Weather History for MMUN - November, 2013

Change the Weather History Date:

Saturday, November 16, 2013

  Actual Average Record
Temperature  
Mean Temperature 79 °F -  
Max Temperature 87 °F 82 °F 89 °F (2002)
Min Temperature 71 °F 67 °F 59 °F (1999)
Cooling Degree Days 14    
Growing Degree Days 29 (Base 50)    
Moisture  
Dew Point 75 °F    
Average Humidity 88    
Maximum Humidity 100    
Minimum Humidity 74    
Precipitation  
Precipitation 0.05 in - - ()
Sea Level Pressure  
Sea Level Pressure 29.95 in    
Wind  
Wind Speed 4 mph ()    
Max Wind Speed 13 mph    
Max Gust Speed -    
Visibility 6.8 miles    
Events      
Averages and records for this station are not official NWS values.
T = Trace of Precipitation, MM = Missing Value Source: Averaged Metar Reports

Daily Weather History Graph

Daily Weather History Graph

Search for Another Location

Airport or City:

Trip Planner

Search our weather history database for the weather conditions in past years. The results will help you decide how hot, cold, wet, or windy it might be!

Date:

Astronomy

Nov. 16, 2013 Rise Set
Actual Time 5:58 AM CST 5:05 PM CST
Civil Twilight 5:35 AM CST 5:29 PM CST
Nautical Twilight 5:08 AM CST 5:56 PM CST
Astronomical Twilight 4:41 AM CST 6:22 PM CST
Moon 4:36 PM CST (11/16) 5:01 AM CST (11/16)
Length of Visible Light 11h 54m
Length of Day
11h 07m
Waxing Gibbous, 99% of the Moon is Illuminated
Nov 16
Waxing Gibbous
Nov 17
Full
Nov 25
Last Quarter
Dec 2
New
Dec 9
First Quarter

Hourly Weather History & Observations

Time (CST) Temp. Heat Index Dew Point Humidity Pressure Visibility Wind Dir Wind Speed Gust Speed Precip Events Conditions
12:43 AM 71.6 °F - 71.6 °F 100% 29.94 in 6.0 mi NNW 2.3 mph - N/A   Mostly Cloudy
1:41 AM 73.4 °F - 71.6 °F 94% 29.92 in 6.0 mi NNW 3.5 mph - N/A   Mostly Cloudy
2:41 AM 71.6 °F - 71.6 °F 100% 29.92 in 6.0 mi Calm Calm - N/A   Scattered Clouds
3:48 AM 71.6 °F - 71.6 °F 100% 29.91 in 6.0 mi North 2.3 mph - N/A   Mostly Cloudy
4:40 AM 73.4 °F - 73.4 °F 100% 29.92 in 6.0 mi North 2.3 mph - N/A   Mostly Cloudy
5:50 AM 73.4 °F - 73.4 °F 100% 29.93 in 6.0 mi Calm Calm - N/A   Mostly Cloudy
6:43 AM 77.0 °F - 73.4 °F 89% 29.96 in 7.0 mi ENE 3.5 mph - N/A   Mostly Cloudy
7:47 AM 82.4 °F 90.9 °F 77.0 °F 84% 29.98 in 7.0 mi East 6.9 mph - N/A   Mostly Cloudy
8:45 AM 84.2 °F 94.1 °F 77.0 °F 79% 30.00 in 7.0 mi East 8.1 mph - N/A   Mostly Cloudy
9:46 AM 86.0 °F 96.9 °F 77.0 °F 74% 30.00 in 7.0 mi ESE 9.2 mph - N/A   Mostly Cloudy
10:41 AM 86.0 °F 96.9 °F 77.0 °F 74% 29.98 in 7.0 mi East 9.2 mph - N/A   Mostly Cloudy
11:40 AM 84.2 °F 94.1 °F 77.0 °F 79% 29.97 in 7.0 mi East 8.1 mph - N/A   Mostly Cloudy
12:40 PM 86.0 °F 96.9 °F 77.0 °F 74% 29.93 in 7.0 mi SE 12.7 mph - N/A   Mostly Cloudy
1:43 PM 87.8 °F 102.5 °F 78.8 °F 75% 29.91 in 7.0 mi SE 9.2 mph - N/A   Mostly Cloudy
2:41 PM 86.0 °F 96.9 °F 77.0 °F 74% 29.91 in 7.0 mi SE 9.2 mph - N/A   Mostly Cloudy
3:41 PM 84.2 °F 92.3 °F 75.2 °F 74% 29.90 in 7.0 mi SSE 10.4 mph - N/A   Mostly Cloudy
4:40 PM 82.4 °F 90.9 °F 77.0 °F 84% 29.91 in 7.0 mi ESE 6.9 mph - N/A   Scattered Clouds
5:43 PM 80.6 °F 87.1 °F 77.0 °F 89% 29.93 in 7.0 mi ESE 4.6 mph - N/A   Scattered Clouds
6:46 PM 78.8 °F - 77.0 °F 94% 29.94 in 7.0 mi East 3.5 mph - N/A   Scattered Clouds
7:41 PM 78.8 °F - 77.0 °F 94% 29.96 in 7.0 mi East 2.3 mph - N/A   Scattered Clouds
8:41 PM 78.8 °F - 75.2 °F 89% 29.97 in 7.0 mi ESE 3.5 mph - N/A   Scattered Clouds
9:47 PM 78.8 °F - 77.0 °F 94% 29.97 in 7.0 mi East 3.5 mph - N/A   Partly Cloudy
10:44 PM 77.0 °F - 75.2 °F 94% 29.97 in 7.0 mi Calm Calm - N/A   Partly Cloudy
11:48 PM 77.0 °F - 75.2 °F 94% 29.96 in 7.0 mi Calm Calm - N/A   Mostly Cloudy